User: anonymous   Login
Location: Unspecified
(0.0000°N, 0.0000°E)
Time: 02:59:09
(UTC+00:00)
Language:

Transit VE-5 - Orbit

View from above orbital plane
View from above orbital plane
View from above satellite
View from above satellite

Ground track
Ground track

The orbit data is extracted from the following two-line orbital elements,

1   959U 64083C   18171.51402876 +.00000053 +00000-0 +57167-4 0  9993
2   959 089.9932 187.5745 0039605 273.9063 240.1092 13.61552187652959
Epoch (UTC): 20 June 2018 12:20:12
Eccentricity: 0.0039605
inclination: 89.9932°
perigee height: 1001 km
apogee height: 1059 km
right ascension of ascending node: 187.5745°
argument of perigee: 273.9063°
revolutions per day: 13.61552187
mean anomaly at epoch: 240.1092°
orbit number at epoch: 65295

The dashed part of the orbit path shows where the satellite is in the earth's shadow,  

DLR